Volver al catálogo

METEOR 2-8 DEB

ActivoPO
NORAD 36343·DEBRIS·🇷🇺 Russia

Lanzado Mar 25, 1982 desde Plesetsk Cosmodrome

Loading…

Próximos Pases (próximas 24 horas)

TLE

EnvejeciendoSource: Space-Track

Época: Sep 8, 2026, 09:58 UTC

1 36343U 82025AD  26251.41553492  .00002336  00000-0  96299-3 0  9997
2 36343  82.5071 128.0097 0014567 331.8148  28.2246 14.26469701668938

Sigue METEOR 2-8 DEB en tiempo real con AllMySat

Download on the App Store